CW7532 Weather Reports


time (UTC)temp
C
wind
direction
speed
KPH
gust
KPH
rain 1hr
cm
rain 24hr
cm
rain mn
cm
humidity
%
barometer
mb
20260504204529 25 306 6.4 12.9 0.00 0.00 0.00 36 1014.9
20260504203029 26 183 6.4 16.1 0.00 0.00 0.00 38 1015.1
20260504201526 26 241 4.8 9.7 0.00 0.00 0.00 38 1015.3
20260504200036 26 193 8.0 14.5 0.00 0.00 0.00 36 1015.4
20260504194522 26 234 9.7 16.1 0.00 0.00 0.00 35 1015.7
20260504193018 25 197 3.2 9.7 0.00 0.00 0.00 37 1016.0
20260504191527 26 71 1.6 12.9 0.00 0.00 0.00 34 1016.0
20260504190013 26 250 1.6 9.7 0.00 0.00 0.00 40 1016.3
20260504184513 25 195 4.8 14.5 0.00 0.00 0.00 37 1016.5
20260504183012 26 233 0.0 8.0 0.00 0.00 0.00 39 1016.7
20260504181505 25 245 3.2 12.9 0.00 0.00 0.00 39 1017.0
20260504180001 25 360 3.2 11.3 0.00 0.00 0.00 41 1017.1
20260504174609 25 60 3.2 9.7 0.00 0.00 0.00 39 1017.2
20260504173103 24 262 3.2 9.7 0.00 0.00 0.00 41 1017.4
20260504171554 25 227 3.2 8.0 0.00 0.00 0.00 40 1017.7
20260504081524 6 247 0.0 0.0 0.00 0.00 0.00 92 1018.8
20260504044559 8 247 0.0 0.0 0.00 0.00 0.00 87 1019.9
20260504043055 9 246 0.0 0.0 0.00 0.00 0.00 85 1020.0
20260504041551 9 247 0.0 0.0 0.00 0.00 0.00 84 1020.1
20260504034558 10 247 0.0 0.0 0.00 0.00 0.00 80 1020.3
20260504033124 10 247 0.0 0.0 0.00 0.00 0.00 80 1020.5
20260504031549 10 246 0.0 0.0 0.00 0.00 0.00 78 1020.5
20260504030049 11 247 0.0 0.0 0.00 0.00 0.00 76 1020.4
20260504024547 11 246 0.0 0.0 0.00 0.00 0.00 75 1020.2
20260504023059 11 247 0.0 0.0 0.00 0.00 0.00 73 1020.0
20260504021551 12 247 0.0 0.0 0.00 0.00 0.00 72 1019.9
20260504020054 12 247 0.0 0.0 0.00 0.00 0.00 70 1019.7
20260504014550 13 246 0.0 0.0 0.00 0.00 0.00 69 1019.6
20260504013051 13 247 0.0 0.0 0.00 0.00 0.00 68 1019.5
20260504011546 14 247 0.0 0.0 0.00 0.00 0.00 65 1019.4
20260504010053 15 247 0.0 0.0 0.00 0.00 0.00 60 1019.2
20260504004559 16 247 0.0 0.0 0.00 0.00 0.00 55 1019.1
20260504003044 17 247 0.0 0.0 0.00 0.00 0.00 52 1019.0
20260504001544 18 247 0.0 0.0 0.00 0.00 0.00 47 1019.0
20260504000044 19 247 0.0 0.0 0.00 0.00 0.00 41 1019.0
20260503234546 19 246 0.0 4.8 0.00 0.00 0.00 38 1019.0
20260503233042 20 355 0.0 6.4 0.00 0.00 0.00 37 1018.8
20260503231542 21 360 0.0 6.4 0.00 0.00 0.00 35 1018.8
20260503230040 21 349 1.6 12.9 0.00 0.00 0.00 34 1019.0
20260503224538 21 269 0.0 8.0 0.00 0.00 0.00 34 1019.0
20260503223037 22 323 6.4 11.3 0.00 0.00 0.00 32 1019.2
20260503221541 22 40 3.2 8.0 0.00 0.00 0.00 32 1019.2
20260503220034 22 360 6.4 14.5 0.00 0.00 0.00 31 1019.3
20260503214534 22 150 4.8 11.3 0.00 0.00 0.00 32 1019.4
20260503213041 22 333 6.4 12.9 0.00 0.00 0.00 34 1019.6
20260503211530 21 303 3.2 11.3 0.00 0.00 0.00 33 1019.7
20260503210029 22 355 6.4 14.5 0.00 0.00 0.00 34 1019.9